| time (UTC) | temp C | wind direction | speed KPH | gust KPH | rain 1hr cm | rain 24hr cm | rain mn cm | humidity % | barometer mb |
| 20260502130404 | 4 | 132 | 1.6 | 3.2 | 0.00 | 0.00 | 0.00 | 43 | 1018.7 |
| 20260502122903 | 3 | 121 | 1.6 | 1.6 | 0.00 | 0.00 | 0.00 | 45 | 1018.3 |
| 20260502122404 | 3 | 196 | 1.6 | 3.2 | 0.00 | 0.00 | 0.00 | 46 | 1018.4 |
| 20260502121904 | 3 | 188 | 3.2 | 3.2 | 0.00 | 0.00 | 0.00 | 45 | 1018.4 |
| 20260502120904 | 3 | 170 | 1.6 | 3.2 | 0.00 | 0.00 | 0.00 | 45 | 1018.3 |
| 20260502120405 | 3 | 184 | 3.2 | 3.2 | 0.00 | 0.00 | 0.00 | 45 | 1018.3 |
| 20260502115903 | 3 | 119 | 1.6 | 3.2 | 0.00 | 0.00 | 0.00 | 45 | 1018.3 |
| 20260502115404 | 3 | 179 | 3.2 | 3.2 | 0.00 | 0.00 | 0.00 | 45 | 1018.3 |
| 20260502114904 | 4 | 173 | 3.2 | 3.2 | 0.00 | 0.00 | 0.00 | 44 | 1018.3 |
| 20260502114403 | 4 | 157 | 3.2 | 3.2 | 0.00 | 0.00 | 0.00 | 43 | 1018.2 |
| 20260502113904 | 4 | 143 | 3.2 | 3.2 | 0.00 | 0.00 | 0.00 | 43 | 1018.3 |
| 20260502113404 | 4 | 146 | 1.6 | 1.6 | 0.00 | 0.00 | 0.00 | 43 | 1018.3 |
| 20260502112904 | 4 | 142 | 1.6 | 1.6 | 0.00 | 0.00 | 0.00 | 43 | 1018.3 |
| 20260502112403 | 4 | 145 | 3.2 | 3.2 | 0.00 | 0.00 | 0.00 | 43 | 1018.3 |
| 20260502111904 | 4 | 136 | 3.2 | 3.2 | 0.00 | 0.00 | 0.00 | 45 | 1018.3 |
| 20260502111404 | 4 | 213 | 3.2 | 3.2 | 0.00 | 0.00 | 0.00 | 46 | 1018.3 |
| 20260502110903 | 4 | 211 | 3.2 | 3.2 | 0.00 | 0.00 | 0.00 | 46 | 1018.3 |
| 20260502110403 | 4 | 214 | 3.2 | 3.2 | 0.00 | 0.00 | 0.00 | 45 | 1018.3 |
| 20260502105903 | 4 | 172 | 1.6 | 3.2 | 0.00 | 0.00 | 0.00 | 43 | 1018.4 |
| 20260502105404 | 4 | 136 | 1.6 | 1.6 | 0.00 | 0.00 | 0.00 | 44 | 1018.3 |
| 20260502104903 | 4 | 183 | 3.2 | 3.2 | 0.00 | 0.00 | 0.00 | 44 | 1018.3 |
| 20260502104403 | 5 | 142 | 1.6 | 3.2 | 0.00 | 0.00 | 0.00 | 43 | 1018.3 |
| 20260502103903 | 5 | 180 | 1.6 | 3.2 | 0.00 | 0.00 | 0.00 | 44 | 1018.3 |
| 20260502103404 | 5 | 197 | 3.2 | 3.2 | 0.00 | 0.00 | 0.00 | 43 | 1018.2 |
| 20260502102404 | 5 | 142 | 3.2 | 3.2 | 0.00 | 0.00 | 0.00 | 43 | 1018.2 |
| 20260502101404 | 5 | 158 | 3.2 | 4.8 | 0.00 | 0.00 | 0.00 | 43 | 1018.2 |
| 20260502100903 | 5 | 130 | 3.2 | 3.2 | 0.00 | 0.00 | 0.00 | 43 | 1018.2 |
| 20260502100404 | 5 | 81 | 3.2 | 3.2 | 0.00 | 0.00 | 0.00 | 42 | 1018.2 |
| 20260502091404 | 7 | 130 | 3.2 | 3.2 | 0.00 | 0.00 | 0.00 | 38 | 1018.2 |
| 20260502090904 | 7 | 183 | 3.2 | 3.2 | 0.00 | 0.00 | 0.00 | 39 | 1018.3 |
| 20260502090403 | 6 | 211 | 4.8 | 4.8 | 0.00 | 0.00 | 0.00 | 41 | 1018.3 |
| 20260502071404 | 8 | 124 | 3.2 | 3.2 | 0.00 | 0.00 | 0.00 | 34 | 1018.3 |
| 20260502070904 | 8 | 147 | 4.8 | 4.8 | 0.00 | 0.00 | 0.00 | 34 | 1018.2 |
| 20260502070404 | 8 | 145 | 6.4 | 8.0 | 0.00 | 0.00 | 0.00 | 33 | 1018.2 |
| 20260502065903 | 8 | 120 | 4.8 | 4.8 | 0.00 | 0.00 | 0.00 | 33 | 1018.2 |
| 20260502065404 | 8 | 134 | 1.6 | 1.6 | 0.00 | 0.00 | 0.00 | 33 | 1018.3 |
| 20260502064904 | 8 | 167 | 3.2 | 4.8 | 0.00 | 0.00 | 0.00 | 32 | 1018.3 |
| 20260502064403 | 8 | 136 | 4.8 | 4.8 | 0.00 | 0.00 | 0.00 | 33 | 1018.3 |
| 20260502063904 | 7 | 156 | 3.2 | 3.2 | 0.00 | 0.00 | 0.00 | 32 | 1018.3 |
| 20260502063404 | 8 | 100 | 3.2 | 3.2 | 0.00 | 0.00 | 0.00 | 31 | 1018.4 |
| 20260502062902 | 8 | 66 | 1.6 | 8.0 | 0.00 | 0.00 | 0.00 | 30 | 1018.3 |
| 20260502062402 | 9 | 32 | 1.6 | 3.2 | 0.00 | 0.00 | 0.00 | 29 | 1018.3 |
| 20260502061902 | 10 | 183 | 3.2 | 3.2 | 0.00 | 0.00 | 0.00 | 28 | 1018.3 |
| 20260502061402 | 10 | 125 | 4.8 | 4.8 | 0.00 | 0.00 | 0.00 | 28 | 1018.2 |
| 20260502060403 | 11 | 190 | 1.6 | 1.6 | 0.00 | 0.00 | 0.00 | 28 | 1018.2 |
| 20260502055903 | 11 | 237 | 1.6 | 1.6 | 0.00 | 0.00 | 0.00 | 26 | 1018.2 |
| 20260502055402 | 11 | 194 | 1.6 | 1.6 | 0.00 | 0.00 | 0.00 | 26 | 1018.2 |
| 20260502054903 | 11 | 204 | 1.6 | 3.2 | 0.00 | 0.00 | 0.00 | 26 | 1018.2 |
| 20260502053902 | 12 | 223 | 3.2 | 3.2 | 0.00 | 0.00 | 0.00 | 23 | 1018.1 |
| 20260502053403 | 11 | 168 | 4.8 | 4.8 | 0.00 | 0.00 | 0.00 | 25 | 1018.1 |
| 20260502052902 | 11 | 199 | 3.2 | 3.2 | 0.00 | 0.00 | 0.00 | 27 | 1018.1 |
| 20260502051902 | 11 | 179 | 1.6 | 1.6 | 0.00 | 0.00 | 0.00 | 26 | 1018.1 |
| 20260502051402 | 11 | 8 | 3.2 | 3.2 | 0.00 | 0.00 | 0.00 | 25 | 1018.0 |
| 20260502050903 | 11 | 87 | 4.8 | 4.8 | 0.00 | 0.00 | 0.00 | 25 | 1017.9 |
| 20260502050402 | 12 | 195 | 1.6 | 3.2 | 0.00 | 0.00 | 0.00 | 24 | 1017.9 |
| 20260502044902 | 13 | 229 | 3.2 | 3.2 | 0.00 | 0.00 | 0.00 | 23 | 1017.7 |
| 20260502043902 | 13 | 269 | 1.6 | 3.2 | 0.00 | 0.00 | 0.00 | 23 | 1017.6 |
| 20260502043403 | 13 | 237 | 3.2 | 3.2 | 0.00 | 0.00 | 0.00 | 23 | 1017.4 |
| 20260502042902 | 13 | 218 | 3.2 | 3.2 | 0.00 | 0.00 | 0.00 | 24 | 1017.4 |
| 20260502042403 | 13 | 217 | 1.6 | 1.6 | 0.00 | 0.00 | 0.00 | 22 | 1017.3 |
| 20260502041902 | 14 | 226 | 1.6 | 4.8 | 0.00 | 0.00 | 0.00 | 23 | 1017.2 |
| 20260502040402 | 15 | 235 | 1.6 | 1.6 | 0.00 | 0.00 | 0.00 | 21 | 1017.0 |
| 20260502035402 | 15 | 232 | 3.2 | 3.2 | 0.00 | 0.00 | 0.00 | 20 | 1016.9 |
| 20260502034902 | 16 | 224 | 1.6 | 3.2 | 0.00 | 0.00 | 0.00 | 19 | 1016.8 |
| 20260502034402 | 16 | 300 | 3.2 | 8.0 | 0.00 | 0.00 | 0.00 | 19 | 1016.7 |
| 20260502033902 | 16 | 344 | 8.0 | 11.3 | 0.00 | 0.00 | 0.00 | 18 | 1016.6 |
| 20260502033403 | 17 | 346 | 8.0 | 9.7 | 0.00 | 0.00 | 0.00 | 18 | 1016.6 |
| 20260502032902 | 17 | 356 | 9.7 | 11.3 | 0.00 | 0.00 | 0.00 | 18 | 1016.5 |
| 20260502032402 | 17 | 0 | 11.3 | 12.9 | 0.00 | 0.00 | 0.00 | 18 | 1016.4 |
| 20260502031902 | 17 | 355 | 11.3 | 12.9 | 0.00 | 0.00 | 0.00 | 17 | 1016.3 |
| 20260502031403 | 17 | 359 | 8.0 | 11.3 | 0.00 | 0.00 | 0.00 | 17 | 1016.2 |
| 20260502030902 | 17 | 357 | 9.7 | 11.3 | 0.00 | 0.00 | 0.00 | 17 | 1016.1 |
| 20260502030402 | 17 | 14 | 9.7 | 12.9 | 0.00 | 0.00 | 0.00 | 17 | 1016.0 |
| 20260502025902 | 17 | 11 | 9.7 | 12.9 | 0.00 | 0.00 | 0.00 | 17 | 1016.0 |
| 20260502024903 | 17 | 34 | 9.7 | 12.9 | 0.00 | 0.00 | 0.00 | 17 | 1015.8 |
| 20260502024402 | 18 | 39 | 14.5 | 16.1 | 0.00 | 0.00 | 0.00 | 16 | 1015.7 |
| 20260502023403 | 18 | 21 | 19.3 | 20.9 | 0.00 | 0.00 | 0.00 | 16 | 1015.5 |
| 20260502022902 | 18 | 10 | 19.3 | 20.9 | 0.00 | 0.00 | 0.00 | 16 | 1015.4 |
| 20260502022403 | 19 | 2 | 20.9 | 22.5 | 0.00 | 0.00 | 0.00 | 15 | 1015.3 |
| 20260502021902 | 19 | 30 | 11.3 | 19.3 | 0.00 | 0.00 | 0.00 | 14 | 1015.2 |
| 20260502021402 | 20 | 348 | 9.7 | 12.9 | 0.00 | 0.00 | 0.00 | 14 | 1015.0 |
| 20260502020902 | 20 | 328 | 12.9 | 14.5 | 0.00 | 0.00 | 0.00 | 13 | 1014.9 |
| 20260502020403 | 20 | 304 | 16.1 | 19.3 | 0.00 | 0.00 | 0.00 | 13 | 1014.8 |
| 20260502015903 | 20 | 300 | 16.1 | 20.9 | 0.00 | 0.00 | 0.00 | 13 | 1014.7 |
| 20260502015402 | 21 | 295 | 14.5 | 25.7 | 0.00 | 0.00 | 0.00 | 13 | 1014.5 |
| 20260502014903 | 21 | 331 | 17.7 | 24.1 | 0.00 | 0.00 | 0.00 | 12 | 1014.4 |
| 20260502014402 | 21 | 316 | 16.1 | 20.9 | 0.00 | 0.00 | 0.00 | 12 | 1014.4 |
| 20260502013903 | 21 | 335 | 16.1 | 19.3 | 0.00 | 0.00 | 0.00 | 12 | 1014.3 |
| 20260502012903 | 21 | 13 | 16.1 | 19.3 | 0.00 | 0.00 | 0.00 | 12 | 1014.3 |
| 20260502012402 | 21 | 30 | 11.3 | 24.1 | 0.00 | 0.00 | 0.00 | 12 | 1014.2 |
| 20260502011902 | 21 | 26 | 14.5 | 20.9 | 0.00 | 0.00 | 0.00 | 12 | 1014.2 |
| 20260502010403 | 22 | 317 | 8.0 | 11.3 | 0.00 | 0.00 | 0.00 | 12 | 1014.1 |
| 20260502005903 | 22 | 351 | 11.3 | 12.9 | 0.00 | 0.00 | 0.00 | 11 | 1014.0 |
| 20260502005403 | 22 | 313 | 14.5 | 16.1 | 0.00 | 0.00 | 0.00 | 12 | 1014.0 |
| 20260502004902 | 21 | 23 | 4.8 | 8.0 | 0.00 | 0.00 | 0.00 | 13 | 1014.0 |
| 20260502004403 | 21 | 284 | 8.0 | 8.0 | 0.00 | 0.00 | 0.00 | 12 | 1014.0 |
| 20260502003902 | 21 | 263 | 4.8 | 4.8 | 0.00 | 0.00 | 0.00 | 13 | 1014.0 |
| 20260502002402 | 21 | 71 | 4.8 | 9.7 | 0.00 | 0.00 | 0.00 | 13 | 1014.0 |
| 20260502001902 | 21 | 14 | 6.4 | 8.0 | 0.00 | 0.00 | 0.00 | 12 | 1014.1 |
| 20260502001403 | 21 | 26 | 3.2 | 4.8 | 0.00 | 0.00 | 0.00 | 13 | 1014.1 |
| 20260502000903 | 21 | 178 | 3.2 | 4.8 | 0.00 | 0.00 | 0.00 | 12 | 1014.1 |
| 20260502000403 | 21 | 282 | 4.8 | 9.7 | 0.00 | 0.00 | 0.00 | 12 | 1014.2 |
| 20260501235903 | 21 | 272 | 4.8 | 9.7 | 0.00 | 0.00 | 0.00 | 13 | 1014.2 |
| 20260501234903 | 21 | 279 | 6.4 | 11.3 | 0.00 | 0.00 | 0.00 | 13 | 1014.0 |
| 20260501233902 | 21 | 270 | 4.8 | 9.7 | 0.00 | 0.00 | 0.00 | 13 | 1014.0 |
| 20260501233403 | 22 | 301 | 8.0 | 11.3 | 0.00 | 0.00 | 0.00 | 13 | 1014.0 |
| 20260501232902 | 22 | 304 | 9.7 | 12.9 | 0.00 | 0.00 | 0.00 | 12 | 1014.0 |
| 20260501232402 | 22 | 267 | 6.4 | 8.0 | 0.00 | 0.00 | 0.00 | 12 | 1014.0 |
| 20260501231903 | 22 | 115 | 9.7 | 11.3 | 0.00 | 0.00 | 0.00 | 12 | 1014.0 |
| 20260501231402 | 22 | 99 | 8.0 | 11.3 | 0.00 | 0.00 | 0.00 | 13 | 1014.0 |
| 20260501230903 | 21 | 148 | 4.8 | 8.0 | 0.00 | 0.00 | 0.00 | 13 | 1014.1 |
| 20260501230402 | 21 | 23 | 8.0 | 11.3 | 0.00 | 0.00 | 0.00 | 13 | 1014.1 |
| 20260501225902 | 21 | 55 | 4.8 | 8.0 | 0.00 | 0.00 | 0.00 | 13 | 1014.2 |
| 20260501225402 | 21 | 32 | 9.7 | 12.9 | 0.00 | 0.00 | 0.00 | 13 | 1014.2 |
| 20260501224902 | 21 | 318 | 4.8 | 8.0 | 0.00 | 0.00 | 0.00 | 13 | 1014.2 |
| 20260501224403 | 21 | 10 | 8.0 | 9.7 | 0.00 | 0.00 | 0.00 | 12 | 1014.2 |
| 20260501223902 | 21 | 140 | 4.8 | 8.0 | 0.00 | 0.00 | 0.00 | 13 | 1014.3 |
| 20260501223402 | 21 | 137 | 8.0 | 11.3 | 0.00 | 0.00 | 0.00 | 12 | 1014.4 |
| 20260501222902 | 22 | 85 | 9.7 | 12.9 | 0.00 | 0.00 | 0.00 | 13 | 1014.4 |
| 20260501221903 | 21 | 332 | 6.4 | 9.7 | 0.00 | 0.00 | 0.00 | 12 | 1014.5 |
| 20260501221402 | 22 | 353 | 9.7 | 12.9 | 0.00 | 0.00 | 0.00 | 12 | 1014.5 |
| 20260501220903 | 21 | 145 | 4.8 | 8.0 | 0.00 | 0.00 | 0.00 | 13 | 1014.6 |
| 20260501220402 | 22 | 331 | 8.0 | 12.9 | 0.00 | 0.00 | 0.00 | 12 | 1014.6 |
| 20260501215902 | 22 | 230 | 8.0 | 14.5 | 0.00 | 0.00 | 0.00 | 12 | 1014.7 |
| 20260501215403 | 22 | 267 | 11.3 | 14.5 | 0.00 | 0.00 | 0.00 | 13 | 1014.8 |
| 20260501214903 | 22 | 54 | 11.3 | 16.1 | 0.00 | 0.00 | 0.00 | 12 | 1014.8 |
| 20260501214403 | 21 | 339 | 11.3 | 14.5 | 0.00 | 0.00 | 0.00 | 13 | 1014.9 |
| 20260501213903 | 22 | 321 | 16.1 | 19.3 | 0.00 | 0.00 | 0.00 | 12 | 1014.9 |
| 20260501213402 | 22 | 294 | 12.9 | 16.1 | 0.00 | 0.00 | 0.00 | 13 | 1015.0 |
| 20260501212902 | 22 | 320 | 11.3 | 14.5 | 0.00 | 0.00 | 0.00 | 12 | 1015.0 |
| 20260501212403 | 22 | 309 | 11.3 | 16.1 | 0.00 | 0.00 | 0.00 | 12 | 1015.1 |
| 20260501210903 | 22 | 325 | 16.1 | 20.9 | 0.00 | 0.00 | 0.00 | 12 | 1015.1 |
| 20260501210403 | 22 | 97 | 9.7 | 14.5 | 0.00 | 0.00 | 0.00 | 12 | 1015.2 |
| 20260501205902 | 21 | 355 | 14.5 | 16.1 | 0.00 | 0.00 | 0.00 | 12 | 1015.3 |
| 20260501204903 | 21 | 263 | 8.0 | 11.3 | 0.00 | 0.00 | 0.00 | 12 | 1015.3 |
| 20260501204402 | 21 | 258 | 6.4 | 14.5 | 0.00 | 0.00 | 0.00 | 12 | 1015.3 |
| 20260501203902 | 22 | 14 | 12.9 | 19.3 | 0.00 | 0.00 | 0.00 | 11 | 1015.3 |
| 20260501202903 | 22 | 260 | 14.5 | 14.5 | 0.00 | 0.00 | 0.00 | 12 | 1015.4 |
| 20260501202403 | 21 | 263 | 4.8 | 16.1 | 0.00 | 0.00 | 0.00 | 12 | 1015.4 |
| 20260501201903 | 22 | 36 | 9.7 | 16.1 | 0.00 | 0.00 | 0.00 | 11 | 1015.5 |
| 20260501201404 | 22 | 312 | 16.1 | 20.9 | 0.00 | 0.00 | 0.00 | 11 | 1015.5 |
| 20260501200902 | 22 | 309 | 9.7 | 14.5 | 0.00 | 0.00 | 0.00 | 11 | 1015.5 |
| 20260501200403 | 22 | 277 | 20.9 | 24.1 | 0.00 | 0.00 | 0.00 | 11 | 1015.5 |
| 20260501195902 | 22 | 336 | 14.5 | 19.3 | 0.00 | 0.00 | 0.00 | 11 | 1015.6 |
| 20260501195403 | 22 | 31 | 16.1 | 27.4 | 0.00 | 0.00 | 0.00 | 11 | 1015.6 |
| 20260501194902 | 22 | 6 | 19.3 | 22.5 | 0.00 | 0.00 | 0.00 | 11 | 1015.7 |
| 20260501194403 | 22 | 347 | 20.9 | 27.4 | 0.00 | 0.00 | 0.00 | 11 | 1015.8 |
| 20260501193902 | 22 | 17 | 19.3 | 29.0 | 0.00 | 0.00 | 0.00 | 11 | 1015.7 |
| 20260501193404 | 22 | 303 | 19.3 | 24.1 | 0.00 | 0.00 | 0.00 | 11 | 1015.8 |
| 20260501192903 | 22 | 289 | 12.9 | 19.3 | 0.00 | 0.00 | 0.00 | 11 | 1015.9 |
| 20260501192402 | 22 | 321 | 9.7 | 12.9 | 0.00 | 0.00 | 0.00 | 12 | 1015.9 |
| 20260501191903 | 22 | 296 | 12.9 | 14.5 | 0.00 | 0.00 | 0.00 | 12 | 1015.9 |
| 20260501190902 | 21 | 200 | 8.0 | 20.9 | 0.00 | 0.00 | 0.00 | 12 | 1016.1 |
| 20260501190403 | 22 | 6 | 11.3 | 24.1 | 0.00 | 0.00 | 0.00 | 12 | 1016.1 |
| 20260501185902 | 21 | 1 | 17.7 | 24.1 | 0.00 | 0.00 | 0.00 | 13 | 1016.1 |
| 20260501185402 | 21 | 318 | 16.1 | 20.9 | 0.00 | 0.00 | 0.00 | 12 | 1016.2 |
| 20260501184903 | 21 | 318 | 8.0 | 16.1 | 0.00 | 0.00 | 0.00 | 13 | 1016.3 |
| 20260501184402 | 21 | 202 | 6.4 | 9.7 | 0.00 | 0.00 | 0.00 | 13 | 1016.3 |
| 20260501183902 | 20 | 297 | 8.0 | 11.3 | 0.00 | 0.00 | 0.00 | 13 | 1016.4 |
| 20260501183403 | 20 | 272 | 4.8 | 9.7 | 0.00 | 0.00 | 0.00 | 14 | 1016.5 |
| 20260501182903 | 20 | 225 | 6.4 | 9.7 | 0.00 | 0.00 | 0.00 | 13 | 1016.6 |
| 20260501182402 | 21 | 86 | 14.5 | 14.5 | 0.00 | 0.00 | 0.00 | 13 | 1016.6 |
| 20260501181902 | 21 | 238 | 8.0 | 11.3 | 0.00 | 0.00 | 0.00 | 14 | 1016.7 |
| 20260501181402 | 20 | 62 | 9.7 | 11.3 | 0.00 | 0.00 | 0.00 | 15 | 1016.6 |
| 20260501180903 | 20 | 33 | 8.0 | 9.7 | 0.00 | 0.00 | 0.00 | 15 | 1016.7 |
| 20260501175903 | 20 | 203 | 6.4 | 9.7 | 0.00 | 0.00 | 0.00 | 15 | 1016.7 |
| 20260501175402 | 20 | 212 | 11.3 | 12.9 | 0.00 | 0.00 | 0.00 | 14 | 1016.7 |
| 20260501174903 | 20 | 172 | 9.7 | 11.3 | 0.00 | 0.00 | 0.00 | 14 | 1016.8 |
| 20260501173903 | 19 | 71 | 8.0 | 11.3 | 0.00 | 0.00 | 0.00 | 15 | 1016.8 |
| 20260501173402 | 19 | 8 | 9.7 | 14.5 | 0.00 | 0.00 | 0.00 | 15 | 1016.8 |
| 20260501171903 | 19 | 203 | 8.0 | 11.3 | 0.00 | 0.00 | 0.00 | 15 | 1016.8 |
| 20260501170902 | 18 | 81 | 11.3 | 19.3 | 0.00 | 0.00 | 0.00 | 16 | 1016.7 |
| 20260501170402 | 18 | 53 | 6.4 | 19.3 | 0.00 | 0.00 | 0.00 | 18 | 1016.7 |
| 20260501165902 | 18 | 294 | 11.3 | 16.1 | 0.00 | 0.00 | 0.00 | 17 | 1016.7 |
| 20260501165403 | 18 | 356 | 8.0 | 12.9 | 0.00 | 0.00 | 0.00 | 18 | 1016.7 |
| 20260501164902 | 18 | 306 | 9.7 | 19.3 | 0.00 | 0.00 | 0.00 | 18 | 1016.7 |
| 20260501163902 | 18 | 334 | 9.7 | 11.3 | 0.00 | 0.00 | 0.00 | 18 | 1016.8 |
| 20260501163403 | 18 | 14 | 9.7 | 12.9 | 0.00 | 0.00 | 0.00 | 19 | 1016.7 |
| 20260501162903 | 18 | 19 | 9.7 | 12.9 | 0.00 | 0.00 | 0.00 | 19 | 1016.7 |
| 20260501162402 | 18 | 26 | 4.8 | 11.3 | 0.00 | 0.00 | 0.00 | 19 | 1016.7 |
| 20260501161903 | 17 | 58 | 4.8 | 9.7 | 0.00 | 0.00 | 0.00 | 18 | 1016.6 |
| 20260501160902 | 17 | 207 | 9.7 | 11.3 | 0.00 | 0.00 | 0.00 | 18 | 1016.6 |
| 20260501160403 | 17 | 229 | 8.0 | 11.3 | 0.00 | 0.00 | 0.00 | 17 | 1016.5 |
| 20260501155903 | 16 | 338 | 11.3 | 12.9 | 0.00 | 0.00 | 0.00 | 18 | 1016.5 |
| 20260501155402 | 16 | 56 | 3.2 | 3.2 | 0.00 | 0.00 | 0.00 | 20 | 1016.5 |
| 20260501154902 | 16 | 178 | 4.8 | 8.0 | 0.00 | 0.00 | 0.00 | 20 | 1016.5 |
| 20260501154402 | 16 | 229 | 3.2 | 8.0 | 0.00 | 0.00 | 0.00 | 20 | 1016.5 |
| 20260501153903 | 15 | 321 | 6.4 | 8.0 | 0.00 | 0.00 | 0.00 | 21 | 1016.4 |
| 20260501153402 | 15 | 194 | 6.4 | 8.0 | 0.00 | 0.00 | 0.00 | 21 | 1016.4 |
| 20260501152904 | 15 | 106 | 6.4 | 9.7 | 0.00 | 0.00 | 0.00 | 21 | 1016.4 |
| 20260501152402 | 15 | 83 | 8.0 | 9.7 | 0.00 | 0.00 | 0.00 | 22 | 1016.3 |
| 20260501151903 | 14 | 16 | 9.7 | 11.3 | 0.00 | 0.00 | 0.00 | 22 | 1016.3 |
| 20260501151402 | 14 | 352 | 6.4 | 8.0 | 0.00 | 0.00 | 0.00 | 22 | 1016.3 |
| 20260501150902 | 14 | 304 | 4.8 | 4.8 | 0.00 | 0.00 | 0.00 | 23 | 1016.3 |
| 20260501150402 | 13 | 284 | 6.4 | 8.0 | 0.00 | 0.00 | 0.00 | 22 | 1016.3 |
| 20260501145903 | 13 | 353 | 8.0 | 9.7 | 0.00 | 0.00 | 0.00 | 21 | 1016.3 |
| 20260501145402 | 13 | 341 | 4.8 | 8.0 | 0.00 | 0.00 | 0.00 | 21 | 1016.3 |
| 20260501144903 | 13 | 338 | 4.8 | 4.8 | 0.00 | 0.00 | 0.00 | 21 | 1016.2 |
| 20260501144402 | 13 | 314 | 4.8 | 4.8 | 0.00 | 0.00 | 0.00 | 22 | 1016.2 |
| 20260501143903 | 12 | 318 | 4.8 | 8.0 | 0.00 | 0.00 | 0.00 | 22 | 1016.1 |
| 20260501143403 | 12 | 337 | 8.0 | 8.0 | 0.00 | 0.00 | 0.00 | 22 | 1016.1 |
| 20260501142903 | 12 | 5 | 4.8 | 8.0 | 0.00 | 0.00 | 0.00 | 22 | 1016.0 |
| 20260501142410 | 12 | 16 | 4.8 | 4.8 | 0.00 | 0.00 | 0.00 | 23 | 1016.0 |